{"data":{"norad_id":64317,"epoch":"2026-05-24T21:05:02.152032Z","epoch_age_seconds":81545,"freshness":"FRESH","line1":"1 64317U 25124A   26144.87849713  .00174580  00000+0  13328-2 0  9992","line2":"2 64317  42.9994 290.2677 0004122 239.5103 120.5358 15.70885053 54819","mean_motion":15.70885053,"eccentricity":0.0004122,"inclination_deg":42.9994,"raan_deg":290.2677,"arg_perigee_deg":239.5103,"mean_anomaly_deg":120.5358,"bstar":0.0013328,"rev_number":5481,"period_min":91.668069363188,"perigee_km":353.59033248227,"apogee_km":359.14225699845,"semimajor_km":6734.5032947404,"source":"CELESTRAK","updated_at":"2026-05-25T13:38:20.392865Z"}}